This is the latest recevied weather packets stored in our database for station/object SQ2HCW-13. If no packets are shown the sender has not sent any weather packets the latest 10 day(s).
| Time | Temp. | Humidity | Pressure | Rain* | Wind** | Luminosity | Snow |
|---|---|---|---|---|---|---|---|
| 1778088370 | 15.56° C | 79% | 991.1 hPa | 0 mm | - | - | - |
| 1778082955 | 20.56° C | 67% | 990.3 hPa | 0 mm | - | - | - |
| 1778076374 | 17.78° C | 72% | 990.3 hPa | 0 mm | - | - | - |
| 1778071526 | 16.67° C | 74% | 990.2 hPa | 0 mm | - | - | - |
| 1778069162 | 19.44° C | 66% | 990 hPa | 0 mm | - | - | - |
| 1778068554 | 18.33° C | 69% | 989.9 hPa | 0 mm | - | - | - |
| 1778067951 | 17.22° C | 73% | 990.1 hPa | 0 mm | - | - | - |
| 1778067362 | 16.67° C | 75% | 990.3 hPa | 0 mm | - | - | - |
| 1778061951 | 16.67° C | 74% | 990.1 hPa | 0 mm | - | - | - |
| 1778061342 | 16.11° C | 77% | 990 hPa | 0 mm | - | - | - |
| 1778060739 | 15.56° C | 77% | 990.1 hPa | 0 mm | - | - | - |
| 1778043342 | 10.56° C | 99% | 990.2 hPa | 0 mm | - | - | - |
| 1778042759 | 10.56° C | 99% | 990.3 hPa | 0 mm | - | - | - |
| 1778040917 | 10° C | 99% | 990.3 hPa | 0 mm | - | - | - |
| 1778035526 | 10° C | 99% | 991.5 hPa | 0 mm | - | - | - |
| 1778034918 | 10° C | 99% | 991.7 hPa | 0 mm | - | - | - |
| 1778033162 | 10° C | 99% | 991.6 hPa | 0 mm | - | - | - |
| 1778032574 | 10° C | 99% | 991.6 hPa | 0 mm | - | - | - |
| 1778031342 | 10° C | 99% | 991.8 hPa | 0 mm | - | - | - |
| 1778030130 | 10° C | 99% | 992.1 hPa | 0 mm | - | - | - |
| 1778027785 | 10° C | 99% | 992.2 hPa | 0 mm | - | - | - |
| 1778022918 | 10.56° C | 99% | 993 hPa | 0 mm | - | - | - |
| 1778022374 | 10.56° C | 99% | 993.1 hPa | 0 mm | - | - | - |
| 1778021162 | 10.56° C | 99% | 992.9 hPa | 0 mm | - | - | - |
| 1778020554 | 10.56° C | 99% | 992.9 hPa | 0 mm | - | - | - |
* Rain latest hour (hover to see other rain measurements)
** Current wind speed in m/s (hover to see current wind gust speed)